Flag for Canada

Past Weather in Sanikiluaq, Nunavut, Canada — Yesterday and Last 2 Weeks

Now
61 °F

Mostly cloudy.


Feels Like: 61 °F
Forecast: 47 / 38 °F
Wind: 10 mph from Southwest

Location: Kuujjuarapik

Current Time: Jul 8, 2020 at 5:09:52 am

Latest Report: Jul 8, 2020 at 4:00 am


Visibility: 9 mi

Pressure: 29.71 "Hg

Humidity: 77%

Dew Point: 54 °F

Location of SanikiluaqLocation

Past Weather in Sanikiluaq — Graph

°F

Sanikiluaq Temperature Yesterday

Maximum temperature yesterday: 72 °F (at 11:00 am)
Minimum temperature yesterday: 54 °F (at 8:45 pm)
Average temperature yesterday: 62 °F

High & Low Weather Summary for the Past Weeks

 TemperatureHumidityPressure
High81 °F (Jun 30, 10:00 am)100% (Jun 23, 4:00 am)30.13 "Hg (Jun 23, 4:00 am)
Low39 °F (Jun 23, 4:00 am)39% (Jun 30, 10:00 am)29.44 "Hg (Jun 25, 5:17 am)
Average54 °F86%29.85 "Hg
* Reported Jun 23 4:00 am — Jul 8 4:00 am, Sanikiluaq. Weather by CustomWeather, © 2020

Note: Actual official high and low records may vary slightly from our data, if they occured in-between our weather recording intervals... More about our weather records

Sanikiluaq Weather History for the Previous 24 Hours

Scroll right to see more
 ConditionsComfort  
Time TempWeatherWind HumidityBarometerVisibility
4:00 am
Wed, Jul 8
61 °FMostly cloudy.10 mph77%29.71 "Hg9 mi
3:22 am59 °FPassing clouds.13 mph82%29.73 "Hg9 mi
2:00 am57 °FPassing clouds.3 mph94%29.73 "Hg9 mi
1:00 am57 °FClear.6 mph88%29.68 "Hg9 mi
12:00 am57 °FClear.5 mph94%29.69 "Hg9 mi
11:00 pm
Tue, Jul 7
55 °FClear.3 mph94%29.70 "Hg9 mi
10:00 pm55 °FPassing clouds.7 mph94%29.71 "Hg9 mi
9:19 pm55 °FScattered clouds.9 mph94%29.70 "Hg9 mi
9:00 pm55 °FPartly sunny.10 mph94%29.70 "Hg9 mi
8:45 pm54 °FPartly sunny.13 mph94%29.70 "Hg9 mi
8:00 pm55 °FSunny.13 mph94%29.69 "Hg9 mi
7:41 pm55 °FScattered clouds.10 mph94%29.68 "Hg9 mi
7:28 pm55 °FPartly sunny.14 mph94%29.70 "Hg9 mi
7:00 pm59 °FPassing clouds.10 mph88%29.67 "Hg9 mi
6:07 pm59 °FScattered clouds.12 mph88%29.66 "Hg9 mi
5:46 pm57 °FMostly cloudy.9 mph88%29.66 "Hg9 mi
5:00 pm59 °FPartly sunny.12 mph82%29.66 "Hg9 mi
4:15 pm63 °FScattered clouds.15 mph83%29.63 "Hg9 mi
3:59 pm61 °FPartly sunny.8 mph88%29.63 "Hg9 mi
3:44 pm61 °FFog.8 mph94%29.64 "Hg1 mi
2:00 pm70 °FPassing clouds.10 mph69%29.62 "Hg9 mi
1:00 pm72 °FPassing clouds.7 mph65%29.62 "Hg9 mi
12:00 pm72 °FMostly cloudy.7 mph65%29.63 "Hg9 mi
11:00 am72 °FPartly sunny.7 mph65%29.63 "Hg9 mi
9:00 am70 °FScattered clouds.5 mph60%29.66 "Hg9 mi
8:00 am66 °FOvercast.6 mph64%29.67 "Hg9 mi
7:00 am64 °FOvercast.7 mph68%29.69 "Hg9 mi
6:00 am64 °FMostly cloudy.5 mph64%29.69 "Hg9 mi
5:00 am64 °FMostly cloudy.6 mph68%29.70 "Hg9 mi
Weather by CustomWeather, © 2020

See weather overview